Volver al catálogo

CZ-6A DEB

ActivoPO
NORAD 61155·DEBRIS·🇨🇳 China

Lanzado Aug 6, 2024 desde Taiyuan Satellite Launch Center

Loading…

Próximos Pases (próximas 24 horas)

TLE

ActualizadoSource: Space-Track

Época: Sep 13, 2026, 22:11 UTC

1 61155U 24140QZ  26256.92480760  .00001491  00000-0  57976-3 0  9998
2 61155  88.5052 218.8993 0099748 171.4893 188.8022 14.26631479107198

Sigue CZ-6A DEB en tiempo real con AllMySat

Download on the App Store